QPF
0.00 0.00 0.03 0.02 0.00 0.01 0.00 0.00 0.00 0.04 0.04 0.05 0.05 0.03 0.01 0.00 0.01 0.00 0.00 0.00 0.00 0.00 0.00 0.00 0.00 0.00 0.06 0.06 0.01 0.00 0.00 0.00 0.01 0.01 0.01 0.02 0.00 0.01 0.01 0.00 0.00 0.01 0.01
0.00 0.00 0.02 0.05 0.01 0.00 0.00 0.00 0.01 0.02 0.02 0.04 0.03 0.00 0.00 0.00 0.01 0.00 0.00 0.00 0.00 0.00 0.00 0.00 0.00 0.00 0.06 0.05 0.01 0.00 0.00 0.00 0.00 0.00 0.01 0.02 0.00 0.00 0.01 0.00 0.00 0.02 0.01
0.00 0.00 0.00 0.03 0.05 0.02 0.01 0.01 0.00 0.01 0.01 0.01 0.00 0.00 0.00 0.01 0.01 0.01 0.00 0.00 0.00 0.00 0.00 0.00 0.00 0.00 0.01 0.03 0.01 0.00 0.00 0.00 0.00 0.01 0.00 0.00 0.00 0.00 0.01 0.00 0.00 0.00 0.00
0.00 0.00 0.00 0.01 0.03 0.03 0.01 0.01 0.00 0.00 0.00 0.00 0.00 0.01 0.02 0.02 0.04 0.05 0.06 0.01 0.00 0.00 0.00 0.00 0.00 0.00 0.00 0.00 0.00 0.00 0.00 0.00 0.00 0.00 0.00 0.00 0.00 0.01 0.01 0.00 0.00 0.00 0.00
0.00 0.00 0.00 0.01 0.02 0.05 0.01 0.01 0.01 0.00 0.00 0.00 0.01 0.02 0.05 0.05 0.11 0.16 0.13 0.02 0.00 0.00 0.00 0.00 0.00 0.00 0.01 0.00 0.00 0.00 0.00 0.00 0.00 0.00 0.00 0.00 0.00 0.00 0.00 0.00 0.00 0.00 0.00
0.00 0.00 0.00 0.01 0.02 0.04 0.03 0.02 0.01 0.01 0.01 0.01 0.00 0.01 0.07 0.14 0.24 0.22 0.02 0.00 0.00 0.00 0.00 0.00 0.00 0.01 0.01 0.00 0.00 0.00 0.00 0.00 0.00 0.00 0.00 0.01 0.00 0.00 0.00 0.00 0.00 0.00 0.00
0.00 0.00 0.00 0.02 0.02 0.05 0.05 0.03 0.01 0.01 0.01 0.06 0.11 0.07 0.00 0.02 0.12 0.07 0.00 0.00 0.00 0.00 0.00 0.00 0.00 0.01 0.01 0.01 0.00 0.00 0.01 0.00 0.00 0.00 0.00 0.00 0.00 0.00 0.00 0.00 0.00 0.01 0.01
0.03 0.01 0.00 0.01 0.02 0.06 0.05 0.04 0.02 0.02 0.04 0.07 0.12 0.06 0.00 0.00 0.01 0.00 0.00 0.00 0.00 0.00 0.00 0.00 0.00 0.01 0.01 0.01 0.00 0.01 0.00 0.00 0.00 0.01 0.00 0.00 0.00 0.00 0.00 0.00 0.01 0.01 0.01
0.02 0.07 0.02 0.00 0.04 0.07 0.06 0.06 0.06 0.03 0.02 0.02 0.06 0.02 0.00 0.00 0.00 0.00 0.00 0.00 0.00 0.00 0.00 0.00 0.00 0.01 0.00 0.01 0.00 0.00 0.00 0.00 0.00 0.00 0.01 0.00 0.01 0.01 0.00 0.00 0.00 0.00 0.00
0.00 0.04 0.07 0.05 0.08 0.09 0.09 0.08 0.12 0.03 0.02 0.01 0.00 0.00 0.00 0.00 0.00 0.00 0.00 0.00 0.00 0.00 0.00 0.00 0.01 0.01 0.00 0.01 0.01 0.00 0.00 0.00 0.00 0.00 0.00 0.01 0.04 0.01 0.00 0.00 0.00 0.00 0.01
0.00 0.00 0.02 0.05 0.08 0.02 0.06 0.20 0.19 0.12 0.02 0.00 0.00 0.00 0.00 0.00 0.00 0.00 0.00 0.00 0.00 0.00 0.00 0.01 0.01 0.01 0.00 0.02 0.02 0.00 0.00 0.00 0.00 0.00 0.00 0.05 0.04 0.00 0.00 0.00 0.00 0.01 0.00
0.00 0.00 0.00 0.00 0.02 0.03 0.11 0.16 0.19 0.19 0.07 0.00 0.00 0.00 0.00 0.00 0.00 0.00 0.00 0.00 0.00 0.00 0.00 0.02 0.01 0.00 0.00 0.01 0.00 0.00 0.00 0.00 0.00 0.00 0.01 0.05 0.02 0.00 0.00 0.00 0.00 0.00 0.00
0.00 0.00 0.00 0.00 0.00 0.01 0.05 0.12 0.13 0.14 0.05 0.00 0.00 0.00 0.00 0.00 0.00 0.00 0.00 0.00 0.00 0.00 0.01 0.01 0.00 0.00 0.00 0.00 0.00 0.00 0.00 0.00 0.00 0.01 0.02 0.02 0.00 0.00 0.00 0.00 0.00 0.00 0.00
0.00 0.00 0.00 0.00 0.00 0.00 0.00 0.02 0.13 0.19 0.14 0.09 0.08 0.04 0.01 0.00 0.00 0.00 0.00 0.00 0.00 0.00 0.00 0.00 0.00 0.00 0.00 0.00 0.00 0.00 0.00 0.00 0.01 0.02 0.00 0.00 0.00 0.00 0.00 0.00 0.01 0.00 0.00
0.00 0.00 0.00 0.00 0.00 0.00 0.00 0.00 0.00 0.06 0.11 0.11 0.08 0.07 0.08 0.04 0.01 0.00 0.00 0.00 0.00 0.00 0.00 0.00 0.00 0.00 0.00 0.00 0.00 0.00 0.00 0.00 0.01 0.01 0.00 0.00 0.00 0.00 0.00 0.01 0.00 0.01 0.00
0.00 0.00 0.00 0.00 0.00 0.00 0.00 0.00 0.00 0.00 0.02 0.07 0.09 0.06 0.06 0.06 0.05 0.01 0.00 0.00 0.00 0.00 0.00 0.00 0.00 0.00 0.00 0.00 0.00 0.00 0.00 0.00 0.00 0.00 0.00 0.00 0.00 0.00 0.00 0.00 0.00 0.00 0.00
0.00 0.00 0.00 0.00 0.00 0.00 0.00 0.00 0.00 0.00 0.00 0.00 0.02 0.06 0.06 0.04 0.04 0.04 0.01 0.00 0.00 0.00 0.00 0.00 0.00 0.00 0.00 0.00 0.00 0.00 0.00 0.00 0.00 0.00 0.00 0.00 0.00 0.00 0.01 0.00 0.00 0.00 0.00
0.00 0.00 0.00 0.00 0.00 0.00 0.00 0.00 0.00 0.00 0.00 0.00 0.00 0.00 0.02 0.03 0.06 0.04 0.01 0.00 0.00 0.00 0.00 0.00 0.00 0.00 0.00 0.00 0.00 0.00 0.00 0.00 0.00 0.00 0.00 0.00 0.00 0.00 0.00 0.01 0.00 0.01 0.00
0.00 0.00 0.00 0.00 0.00 0.00 0.00 0.00 0.00 0.00 0.00 0.00 0.00 0.00 0.00 0.00 0.01 0.02 0.01 0.01 0.00 0.00 0.00 0.00 0.00 0.00 0.00 0.00 0.00 0.00 0.00 0.00 0.00 0.00 0.00 0.00 0.00 0.00 0.00 0.00 0.00 0.00 0.00
0.00 0.00 0.00 0.00 0.00 0.00 0.00 0.00 0.00 0.00 0.00 0.00 0.00 0.00 0.00 0.00 0.00 0.00 0.01 0.00 0.01 0.01 0.00 0.00 0.00 0.00 0.00 0.00 0.00 0.00 0.00 0.00 0.00 0.00 0.00 0.00 0.00 0.00 0.00 0.00 0.00 0.00 0.00
0.00 0.00 0.00 0.00 0.00 0.00 0.00 0.00 0.00 0.00 0.00 0.00 0.00 0.00 0.00 0.00 0.00 0.00 0.00 0.00 0.01 0.02 0.00 0.00 0.00 0.00 0.00 0.00 0.00 0.00 0.00 0.00 0.00 0.00 0.00 0.00 0.00 0.00 0.00 0.00 0.00 0.00 0.00
0.00 0.00 0.00 0.00 0.00 0.00 0.00 0.00 0.00 0.00 0.00 0.00 0.00 0.00 0.00 0.00 0.00 0.00 0.00 0.00 0.00 0.01 0.00 0.00 0.00 0.00 0.00 0.00 0.00 0.00 0.00 0.00 0.00 0.00 0.00 0.00 0.00 0.00 0.00 0.00 0.00 0.00 0.00
0.00 0.00 0.00 0.00 0.00 0.00 0.00 0.00 0.00 0.00 0.00 0.00 0.00 0.00 0.00 0.00 0.00 0.00 0.00 0.00 0.00 0.00 0.00 0.00 0.00 0.00 0.01 0.00 0.00 0.00 0.00 0.00 0.00 0.00 0.00 0.00 0.00 0.00 0.00 0.00 0.00 0.00 0.00
0.00 0.00 0.00 0.00 0.00 0.00 0.00 0.00 0.00 0.00 0.00 0.00 0.00 0.00 0.00 0.00 0.00 0.00 0.00 0.00 0.00 0.00 0.00 0.00 0.00 0.00 0.00 0.01 0.00 0.00 0.00 0.00 0.00 0.00 0.00 0.00 0.00 0.00 0.00 0.00 0.00 0.00 0.00
0.00 0.00 0.00 0.00 0.00 0.00 0.00 0.00 0.00 0.00 0.00 0.00 0.00 0.00 0.00 0.00 0.00 0.00 0.00 0.00 0.00 0.00 0.00 0.00 0.00 0.00 0.00 0.01 0.01 0.00 0.00 0.00 0.00 0.00 0.00 0.00 0.00 0.00 0.00 0.00 0.00 0.00 0.00
0.00 0.00 0.00 0.00 0.00 0.00 0.00 0.00 0.00 0.00 0.00 0.00 0.00 0.00 0.00 0.00 0.00 0.00 0.00 0.00 0.00 0.00 0.00 0.00 0.00 0.00 0.00 0.00 0.00 0.00 0.00 0.00 0.00 0.00 0.00 0.00 0.00 0.00 0.00 0.00 0.00 0.00 0.00
MSLP
1014.04 1013.93 1014.00 1013.99 1014.22 1014.43 1014.55 1014.63 1014.68 1014.85 1015.08 1015.19 1015.45 1015.77 1016.08 1016.32 1016.60 1016.87 1017.13 1017.38 1017.51 1017.57 1017.67 1017.74 1017.86 1018.03 1018.30 1018.37 1018.51 1018.77 1018.88 1019.08 1019.20 1019.27 1019.42 1019.46 1019.63 1019.82 1019.99 1020.14 1020.02 1020.01 1020.24
1014.03 1013.90 1014.13 1014.11 1014.15 1014.44 1014.64 1014.71 1014.94 1015.10 1015.28 1015.34 1015.54 1015.85 1016.15 1016.42 1016.66 1016.96 1017.22 1017.48 1017.66 1017.76 1017.93 1018.06 1018.10 1018.37 1018.59 1018.62 1018.90 1019.10 1019.34 1019.54 1019.65 1019.79 1019.92 1019.93 1020.08 1020.26 1020.38 1020.54 1020.55 1020.54 1020.70
1013.83 1013.94 1014.09 1014.19 1014.40 1014.50 1014.74 1014.94 1015.18 1015.27 1015.46 1015.62 1015.69 1015.95 1016.20 1016.48 1016.72 1016.95 1017.32 1017.61 1017.85 1018.00 1018.15 1018.28 1018.41 1018.55 1018.93 1019.09 1019.25 1019.45 1019.70 1019.92 1020.08 1020.22 1020.26 1020.40 1020.51 1020.65 1020.80 1020.91 1020.99 1021.00 1021.08
1013.74 1013.82 1014.13 1014.21 1014.46 1014.61 1014.84 1015.01 1015.22 1015.36 1015.46 1015.69 1015.82 1016.02 1016.23 1016.53 1016.87 1017.02 1017.30 1017.76 1018.00 1018.25 1018.44 1018.57 1018.73 1018.85 1019.18 1019.39 1019.60 1019.77 1020.05 1020.29 1020.49 1020.56 1020.45 1020.71 1020.86 1021.08 1021.20 1021.34 1021.50 1021.46 1021.46
1013.71 1013.80 1014.15 1014.30 1014.43 1014.63 1014.87 1015.15 1015.30 1015.44 1015.58 1015.74 1015.91 1016.13 1016.37 1016.58 1016.81 1017.18 1017.55 1017.88 1018.15 1018.51 1018.73 1018.87 1019.07 1019.20 1019.43 1019.66 1019.87 1020.06 1020.36 1020.58 1020.77 1020.75 1020.83 1021.03 1021.26 1021.53 1021.77 1021.82 1021.89 1021.91 1022.01
1013.83 1013.97 1014.23 1014.42 1014.56 1014.71 1014.99 1015.21 1015.42 1015.56 1015.72 1015.94 1016.12 1016.31 1016.61 1016.86 1017.06 1017.44 1017.80 1018.14 1018.40 1018.79 1018.95 1019.12 1019.33 1019.46 1019.62 1019.89 1020.14 1020.37 1020.61 1020.78 1020.90 1020.92 1021.07 1021.38 1021.53 1021.81 1022.06 1022.20 1022.22 1022.31 1022.36
1014.06 1014.14 1014.35 1014.42 1014.67 1014.94 1015.18 1015.25 1015.42 1015.69 1015.89 1016.06 1016.28 1016.56 1016.74 1017.04 1017.36 1017.72 1018.09 1018.34 1018.65 1019.01 1019.13 1019.34 1019.54 1019.69 1019.89 1020.09 1020.21 1020.54 1020.82 1020.95 1020.90 1021.15 1021.30 1021.42 1021.61 1021.98 1022.19 1022.48 1022.57 1022.64 1022.82
1014.21 1014.24 1014.46 1014.59 1014.75 1014.93 1015.16 1015.30 1015.47 1015.67 1015.98 1016.09 1016.41 1016.70 1016.81 1017.13 1017.58 1017.93 1018.15 1018.46 1018.82 1019.18 1019.31 1019.47 1019.67 1019.84 1020.01 1020.17 1020.40 1020.75 1020.98 1021.10 1021.25 1021.49 1021.54 1021.60 1021.88 1022.15 1022.45 1022.85 1022.98 1023.08 1023.24
1014.25 1014.44 1014.51 1014.67 1014.78 1014.98 1015.19 1015.25 1015.40 1015.54 1015.81 1016.16 1016.36 1016.62 1016.88 1017.06 1017.58 1017.77 1018.14 1018.63 1019.03 1019.26 1019.45 1019.54 1019.69 1019.94 1020.14 1020.37 1020.65 1021.06 1021.27 1021.29 1021.39 1021.65 1021.87 1021.90 1022.11 1022.40 1022.80 1023.16 1023.33 1023.48 1023.72
1014.95 1014.74 1014.92 1014.87 1014.95 1014.97 1014.98 1015.25 1015.34 1015.48 1015.74 1016.11 1016.37 1016.58 1016.74 1017.15 1017.58 1017.87 1018.22 1018.80 1019.11 1019.32 1019.47 1019.67 1019.76 1019.95 1020.28 1020.54 1020.86 1021.23 1021.53 1021.58 1021.82 1021.77 1021.92 1022.06 1022.39 1022.66 1023.07 1023.36 1023.88 1024.10 1024.30
1015.55 1015.47 1015.26 1015.13 1015.02 1014.95 1014.92 1015.08 1015.32 1015.45 1015.70 1015.94 1016.22 1016.40 1016.60 1017.02 1017.58 1017.93 1018.30 1018.88 1019.22 1019.24 1019.48 1019.63 1019.88 1020.10 1020.43 1020.78 1021.00 1021.41 1021.64 1021.82 1021.93 1022.00 1022.10 1022.38 1022.57 1022.80 1023.20 1023.68 1024.15 1024.38 1024.60
1016.14 1016.07 1015.92 1015.64 1015.29 1015.21 1015.04 1015.00 1015.23 1015.36 1015.68 1015.98 1016.12 1016.41 1016.58 1017.06 1017.47 1017.88 1018.37 1019.04 1019.18 1019.24 1019.39 1019.57 1019.88 1020.30 1020.77 1021.04 1021.57 1021.76 1021.72 1021.72 1021.97 1022.17 1022.36 1022.73 1022.80 1023.15 1023.47 1023.97 1024.46 1024.82 1025.08
1016.55 1016.48 1016.27 1016.12 1015.82 1015.46 1015.35 1015.42 1015.34 1015.41 1015.65 1015.87 1016.11 1016.09 1016.60 1017.10 1017.49 1017.83 1018.39 1019.01 1019.14 1019.33 1019.44 1019.76 1020.18 1020.46 1020.82 1021.21 1021.76 1022.09 1021.82 1021.92 1022.22 1022.46 1022.79 1022.91 1023.02 1023.41 1023.84 1024.33 1024.73 1025.12 1025.36
1016.72 1016.77 1016.64 1016.44 1016.10 1015.79 1015.67 1015.64 1015.70 1015.71 1015.74 1015.81 1016.15 1016.30 1016.44 1016.98 1017.48 1017.93 1018.45 1018.96 1019.27 1019.38 1019.77 1020.07 1020.62 1020.70 1021.15 1021.54 1021.87 1022.18 1021.97 1022.22 1022.58 1022.80 1023.23 1023.34 1023.34 1023.67 1024.03 1024.67 1025.05 1025.46 1025.71
1016.93 1017.01 1016.93 1016.73 1016.38 1016.15 1015.83 1015.78 1015.66 1015.73 1015.74 1015.92 1016.29 1016.70 1016.66 1016.92 1017.25 1018.00 1018.62 1018.96 1019.22 1019.32 1019.66 1020.50 1020.90 1021.06 1021.58 1021.73 1022.27 1022.27 1022.18 1022.44 1022.89 1023.10 1023.29 1023.68 1023.75 1023.91 1024.17 1025.00 1025.31 1025.68 1025.97
1017.10 1017.03 1017.09 1016.92 1016.75 1016.47 1016.19 1015.85 1015.66 1015.50 1015.60 1016.01 1016.34 1015.94 1017.02 1017.26 1017.11 1017.75 1018.51 1019.02 1019.31 1019.31 1019.72 1020.35 1020.92 1021.30 1021.75 1021.87 1022.47 1022.71 1022.36 1022.62 1023.24 1023.31 1023.74 1023.97 1023.99 1024.12 1024.53 1025.07 1025.51 1025.89 1026.20
1017.28 1017.35 1017.21 1017.01 1016.87 1016.71 1016.43 1016.12 1015.79 1015.58 1015.56 1015.74 1016.02 1016.28 1016.76 1017.26 1017.14 1017.70 1018.36 1018.86 1019.50 1019.91 1019.84 1020.58 1021.09 1021.44 1021.80 1022.38 1022.81 1023.18 1022.96 1023.02 1023.49 1023.57 1023.91 1024.05 1024.33 1024.23 1024.98 1025.28 1025.74 1026.06 1026.39
1017.59 1017.54 1017.42 1017.25 1016.94 1016.71 1016.50 1016.30 1015.81 1015.50 1015.40 1015.54 1015.80 1016.17 1016.45 1016.51 1016.46 1017.64 1018.38 1018.73 1018.98 1020.35 1020.31 1020.69 1021.05 1021.64 1021.87 1022.56 1023.31 1023.68 1023.74 1023.60 1023.84 1023.99 1024.26 1024.46 1024.70 1024.59 1025.53 1025.59 1025.90 1026.22 1026.49
1017.93 1017.85 1017.59 1017.35 1017.03 1016.75 1016.39 1016.12 1015.76 1015.35 1015.23 1015.13 1015.46 1015.81 1016.05 1016.29 1016.69 1017.42 1018.01 1018.38 1018.99 1019.69 1020.34 1020.66 1021.47 1021.55 1022.20 1022.65 1023.36 1023.95 1024.03 1024.12 1024.25 1024.49 1024.59 1024.86 1025.22 1025.37 1025.78 1026.13 1026.27 1026.52 1026.77
1018.03 1018.03 1017.90 1017.63 1017.23 1016.80 1016.39 1015.93 1015.60 1015.42 1015.22 1015.13 1015.08 1015.40 1015.86 1016.23 1016.72 1017.05 1017.62 1017.91 1018.78 1019.93 1020.38 1020.66 1021.50 1022.31 1022.70 1022.71 1023.51 1024.21 1024.54 1024.86 1024.89 1025.06 1025.21 1025.37 1025.58 1025.84 1026.08 1026.40 1026.82 1027.21 1027.40
1018.12 1017.91 1017.68 1017.43 1017.18 1016.96 1016.61 1016.23 1015.87 1015.57 1015.34 1015.25 1015.00 1015.18 1015.61 1015.96 1016.21 1016.65 1017.19 1017.54 1018.53 1018.45 1019.98 1020.90 1021.17 1022.47 1023.61 1023.42 1023.63 1024.59 1025.18 1025.39 1025.68 1025.86 1026.08 1025.85 1026.10 1026.29 1026.47 1026.87 1027.23 1027.57 1027.94
1018.10 1017.76 1017.47 1017.21 1017.05 1016.90 1016.67 1016.27 1016.01 1015.76 1015.51 1015.29 1015.07 1014.97 1015.42 1015.70 1016.06 1016.31 1016.70 1017.38 1017.95 1018.51 1019.64 1020.59 1020.40 1022.17 1023.34 1023.34 1023.41 1023.98 1025.39 1025.96 1026.25 1026.33 1026.51 1026.64 1026.88 1026.88 1026.99 1027.31 1027.77 1028.08 1028.31
1017.92 1017.69 1017.45 1017.16 1016.92 1016.68 1016.47 1016.12 1015.76 1015.62 1015.51 1015.32 1015.26 1015.22 1015.36 1015.54 1015.83 1016.07 1016.34 1016.75 1017.44 1018.12 1019.54 1019.61 1019.80 1020.67 1021.78 1023.38 1023.34 1023.50 1024.50 1025.08 1026.14 1026.83 1026.80 1027.08 1027.38 1027.38 1027.43 1027.87 1028.14 1028.47 1028.69
1018.07 1017.79 1017.43 1017.07 1016.60 1016.30 1016.16 1015.95 1015.71 1015.50 1015.15 1014.90 1014.86 1014.98 1015.18 1015.39 1015.67 1016.00 1016.37 1016.65 1017.05 1017.90 1018.65 1019.87 1019.60 1020.24 1019.71 1021.95 1023.34 1023.34 1023.28 1023.54 1025.07 1026.66 1027.11 1027.25 1027.74 1027.76 1027.78 1028.03 1028.38 1028.82 1028.93
1017.95 1017.76 1017.49 1017.08 1016.46 1015.98 1015.71 1015.54 1015.33 1015.22 1015.03 1014.77 1014.68 1014.91 1015.10 1015.34 1015.50 1015.82 1016.16 1016.51 1017.21 1017.48 1018.15 1018.88 1019.54 1019.38 1020.10 1020.78 1021.39 1022.16 1023.43 1023.93 1024.14 1025.02 1026.14 1026.92 1027.60 1027.87 1028.18 1028.26 1028.61 1028.73 1029.22
1017.87 1017.55 1017.42 1017.07 1016.52 1015.89 1015.42 1014.85 1014.57 1014.38 1014.26 1014.34 1014.58 1014.75 1015.01 1015.21 1015.40 1015.53 1015.89 1016.19 1016.44 1017.10 1017.47 1018.18 1018.52 1019.03 1019.73 1020.38 1021.59 1021.80 1021.88 1023.26 1023.85 1024.18 1025.66 1026.63 1026.94 1027.58 1028.11 1028.71 1028.84 1028.87 1029.20
Thickness
5717 5719 5721 5721 5722 5721 5722 5722 5723 5722 5723 5724 5722 5720 5720 5719 5718 5717 5716 5715 5715 5715 5714 5714 5713 5712 5711 5710 5709 5708 5707 5706 5705 5706 5705 5705 5704 5702 5702 5701 5702 5702 5701
5716 5717 5716 5718 5720 5719 5719 5719 5719 5720 5719 5721 5721 5719 5718 5718 5717 5716 5715 5713 5713 5713 5712 5711 5711 5710 5709 5708 5707 5705 5704 5702 5702 5701 5701 5701 5700 5699 5698 5698 5698 5698 5697
5716 5715 5714 5714 5715 5716 5716 5716 5715 5716 5716 5717 5718 5718 5717 5716 5715 5715 5713 5711 5710 5710 5709 5709 5709 5708 5706 5705 5705 5703 5701 5700 5699 5698 5698 5697 5697 5696 5695 5695 5695 5695 5694
5714 5714 5712 5712 5712 5712 5713 5713 5712 5713 5714 5714 5715 5715 5715 5714 5712 5712 5711 5709 5708 5707 5706 5706 5706 5705 5704 5703 5702 5701 5699 5698 5696 5696 5696 5694 5694 5692 5692 5691 5690 5691 5691
5710 5711 5709 5708 5709 5709 5709 5709 5709 5710 5711 5712 5713 5713 5712 5711 5710 5709 5708 5706 5706 5703 5703 5703 5702 5702 5701 5700 5699 5698 5697 5696 5695 5694 5693 5692 5690 5688 5687 5687 5686 5686 5686
5706 5705 5705 5704 5704 5705 5704 5705 5705 5705 5706 5707 5708 5708 5708 5706 5706 5705 5704 5703 5702 5699 5699 5699 5698 5698 5698 5697 5696 5695 5694 5694 5693 5692 5691 5689 5688 5686 5684 5683 5683 5683 5682
5700 5700 5699 5700 5698 5698 5698 5700 5701 5701 5701 5702 5702 5701 5703 5702 5700 5701 5700 5699 5698 5696 5696 5695 5695 5695 5694 5693 5693 5692 5691 5691 5691 5690 5689 5688 5687 5684 5682 5680 5679 5679 5678
5693 5694 5693 5694 5693 5693 5694 5694 5695 5695 5696 5697 5696 5696 5698 5697 5696 5696 5696 5696 5694 5692 5692 5692 5691 5691 5691 5690 5690 5688 5688 5688 5688 5686 5685 5685 5683 5680 5679 5676 5675 5674 5673
5686 5686 5688 5688 5689 5688 5689 5691 5691 5691 5692 5692 5693 5693 5692 5692 5691 5692 5692 5690 5689 5689 5689 5689 5689 5688 5687 5686 5685 5684 5683 5684 5684 5683 5682 5680 5679 5676 5674 5672 5671 5669 5667
5675 5678 5679 5682 5683 5684 5685 5686 5687 5687 5687 5687 5688 5690 5690 5688 5687 5686 5686 5684 5684 5684 5685 5685 5685 5685 5683 5682 5681 5680 5679 5679 5678 5678 5677 5676 5674 5672 5670 5668 5664 5662 5660
5662 5666 5671 5674 5676 5680 5682 5681 5681 5682 5682 5683 5683 5684 5686 5684 5681 5680 5680 5678 5678 5679 5680 5681 5680 5679 5678 5677 5676 5675 5675 5674 5673 5672 5672 5671 5669 5668 5665 5662 5658 5656 5654
5651 5655 5659 5663 5669 5671 5675 5675 5676 5677 5676 5676 5678 5678 5679 5678 5677 5675 5673 5670 5671 5673 5674 5676 5675 5673 5671 5669 5668 5669 5669 5670 5668 5667 5666 5665 5664 5661 5659 5656 5652 5648 5646
5642 5644 5648 5652 5656 5661 5665 5666 5669 5671 5670 5671 5673 5676 5673 5671 5670 5669 5667 5663 5665 5666 5668 5668 5668 5667 5664 5663 5662 5661 5664 5664 5662 5661 5659 5659 5658 5655 5652 5649 5645 5642 5640
5634 5635 5638 5642 5646 5650 5653 5656 5658 5659 5663 5665 5667 5668 5669 5666 5662 5661 5660 5658 5659 5659 5659 5659 5659 5660 5658 5656 5655 5655 5657 5656 5655 5653 5652 5651 5651 5649 5646 5642 5639 5636 5634
5626 5626 5629 5632 5636 5639 5643 5646 5650 5652 5654 5656 5654 5653 5657 5658 5658 5654 5650 5651 5652 5653 5652 5648 5649 5650 5648 5648 5646 5647 5649 5648 5648 5647 5645 5642 5642 5642 5641 5635 5633 5630 5627
5616 5618 5620 5623 5625 5629 5633 5637 5642 5646 5647 5645 5643 5642 5644 5648 5652 5648 5643 5641 5642 5645 5644 5641 5641 5640 5639 5640 5637 5637 5640 5640 5639 5639 5637 5635 5635 5635 5632 5629 5626 5623 5620
5609 5609 5611 5613 5615 5618 5621 5626 5631 5636 5639 5639 5638 5637 5637 5635 5642 5638 5637 5635 5630 5630 5635 5633 5632 5631 5630 5627 5626 5625 5628 5629 5627 5629 5628 5627 5626 5628 5622 5621 5617 5615 5613
5601 5602 5603 5604 5607 5609 5613 5616 5622 5626 5631 5632 5629 5628 5629 5631 5633 5629 5626 5628 5625 5616 5622 5623 5623 5622 5623 5619 5614 5612 5613 5615 5616 5617 5618 5617 5616 5618 5611 5611 5610 5607 5605
5592 5593 5596 5597 5600 5602 5605 5609 5613 5617 5620 5624 5624 5621 5620 5621 5624 5621 5621 5620 5613 5610 5611 5613 5610 5611 5611 5609 5605 5602 5602 5602 5603 5604 5606 5606 5605 5605 5603 5601 5600 5598 5595
5583 5583 5585 5587 5591 5594 5598 5602 5607 5609 5611 5613 5616 5614 5611 5610 5611 5613 5612 5611 5605 5601 5600 5600 5600 5594 5594 5599 5595 5592 5590 5589 5590 5590 5591 5593 5595 5595 5593 5590 5587 5584 5582
5573 5576 5577 5580 5582 5585 5588 5592 5595 5599 5602 5604 5607 5608 5605 5604 5604 5604 5603 5604 5599 5601 5589 5587 5585 5582 5574 5581 5583 5576 5575 5577 5575 5577 5576 5579 5580 5582 5581 5577 5574 5572 5570
5563 5566 5570 5572 5574 5576 5579 5582 5585 5588 5591 5594 5597 5599 5597 5596 5595 5596 5594 5591 5591 5592 5583 5577 5580 5573 5565 5568 5571 5571 5562 5561 5560 5563 5563 5563 5563 5565 5565 5564 5561 5559 5559
5556 5557 5560 5562 5564 5567 5570 5573 5577 5579 5580 5583 5584 5587 5587 5587 5586 5585 5586 5585 5582 5581 5571 5575 5575 5574 5567 5554 5558 5562 5556 5557 5549 5544 5549 5548 5547 5549 5550 5549 5548 5547 5545
5546 5546 5550 5553 5557 5560 5562 5564 5567 5570 5573 5576 5577 5577 5576 5576 5575 5573 5570 5571 5572 5568 5566 5558 5564 5562 5573 5554 5544 5550 5549 5552 5545 5533 5533 5536 5532 5535 5537 5536 5535 5533 5533
5538 5537 5538 5543 5549 5553 5555 5558 5560 5561 5564 5567 5568 5566 5564 5563 5562 5561 5560 5557 5556 5559 5557 5554 5552 5557 5557 5553 5552 5548 5539 5535 5538 5536 5531 5526 5520 5519 5519 5523 5523 5523 5521
5529 5530 5530 5532 5537 5543 5547 5553 5557 5559 5562 5560 5558 5557 5554 5552 5550 5549 5548 5546 5546 5544 5546 5544 5546 5546 5545 5546 5538 5541 5544 5532 5530 5531 5520 5514 5518 5512 5511 5509 5510 5512 5507